Tracking 33446 objects as of 10-Mar-2026
HD Live streaming from Space Station
objects crossing your sky now

STARLINK-35544

Track STARLINK-35544 now!
10-day predictions
STARLINK-35544 is classified as:


NORAD ID: 65922
Int'l Code: 2025-225N
Perigee: 481.2 km
Apogee: 483.4 km
Inclination: 53.2 °
Period: 94.1 minutes
Semi major axis: 6853 km
RCS: Unknown
Launch date: October 8, 2025
Source: United States (US)
Launch site: AIR FORCE WESTERN TEST RANGE (AFWTR)
Your satellite tracking list
Your tracking list is empty




NASA's NSSDC Master Catalog

Two Line Element Set (TLE):
1 65922U 25225N   26068.48295787  .00026146  00000-0  89131-3 0  9996
2 65922  53.1585 166.8394 0001591 149.3151 210.7943 15.30217116 24379
Source of the keplerian elements: AFSPC